EW8935 Weather Reports


time (UTC)temp
F
wind
direction
speed
knots
gust
knots
rain 1hr
in
rain 24hr
in
rain mn
in
humidity
%
barometer
mb
20260505140317 58 0.0 0.0 0.00 0.04 0.04 82 1007.9
20260505124317 57 0.0 0.9 0.00 0.04 0.04 83 1007.4
20260505123317 57 0.0 0.0 0.00 0.04 0.04 84 1007.3
20260505122317 57 0.0 0.0 0.00 0.04 0.04 84 1007.0
20260505121317 58 0.0 0.0 0.00 0.04 0.04 85 1006.8
20260505120317 58 0.0 0.0 0.00 0.04 0.04 86 1006.8
20260505115317 58 0.0 0.0 0.00 0.04 0.04 87 1006.9
20260505114317 58 0.0 0.0 0.00 0.04 0.04 89 1006.8
20260505113317 59 0.0 0.0 0.00 0.04 0.04 88 1006.8
20260505112317 59 0.0 0.0 0.00 0.04 0.04 87 1006.6
20260505111317 60 0.0 0.0 0.00 0.04 0.04 86 1006.1
20260505110337 61 0.0 0.0 0.00 0.04 0.04 87 1007.1
20260505101317 61 0.0 0.0 0.01 0.04 0.04 89 1006.7
20260505100317 61 0.0 0.0 0.01 0.04 0.04 89 1006.6
20260505095317 61 293 0.9 3.5 0.00 0.03 0.03 88 1006.4
20260505094316 61 0.0 0.0 0.00 0.03 0.03 86 1005.8
20260505093316 62 0.0 0.0 0.00 0.03 0.03 83 1005.5
20260505092317 62 0.0 0.0 0.01 0.03 0.03 83 1005.2
20260505091317 61 0.0 0.0 0.02 0.03 0.03 86 1004.8
20260505090316 61 0.0 0.0 0.03 0.03 0.03 88 1004.8
20260505085317 61 0.0 0.0 0.03 0.03 0.03 89 1004.3
20260505084316 62 0.0 0.0 0.03 0.03 0.03 88 1004.4
20260505083317 62 203 0.9 6.1 0.03 0.03 0.03 88 1004.7
20260505082316 63 0.0 0.0 0.02 0.02 0.02 88 1006.5
20260505081417 63 270 3.5 6.1 0.01 0.01 0.01 86 1006.8
20260505080316 63 293 3.5 10.4 0.00 0.00 0.00 84 1006.6
20260505075317 64 180 0.9 7.8 0.00 0.00 0.00 82 1006.3
20260505074316 64 0.0 0.0 0.00 0.00 0.00 80 1006.4
20260505073317 64 0.0 0.0 0.00 0.00 0.00 77 1006.6
20260505072317 65 0.0 0.0 0.00 0.00 0.00 74 1006.3
20260505071316 65 0.0 0.0 0.00 0.00 0.00 73 1006.3
20260505070336 66 0.0 0.0 0.00 0.00 0.00 72 1006.2
20260505065316 66 0.0 0.0 0.00 0.00 0.00 72 1005.9
20260505064316 66 0.0 0.0 0.00 0.00 0.00 72 1006.0
20260505063316 66 0.0 0.0 0.00 0.00 0.00 71 1006.5
20260505062316 66 0.0 0.0 0.00 0.00 0.00 71 1006.5
20260505061318 66 203 0.9 2.6 0.00 0.00 0.00 71 1006.7
20260505060318 66 0.0 0.0 0.00 0.00 0.00 70 1006.7
20260505055318 66 0.0 0.0 0.00 0.00 0.00 70 1006.6
20260505054338 66 0.0 0.9 0.00 0.00 0.00 70 1006.6
20260505053318 67 0.0 1.7 0.00 0.00 0.00 69 1006.5
20260505052318 66 203 0.9 2.6 0.00 0.00 0.00 70 1006.4
20260505051318 66 0.0 0.9 0.00 0.00 0.00 69 1006.5
20260505050318 66 0.0 0.0 0.00 0.00 0.00 69 1006.4
20260505041317 67 0.0 0.0 0.00 0.00 0.00 68 1006.9
20260505040318 67 0.0 0.0 0.00 0.00 0.00 68 1007.0
20260505035318 67 0.0 0.0 0.00 0.00 0.00 68 1007.3
20260505034318 68 0.0 0.0 0.00 0.00 0.00 67 1007.4
20260505033318 68 0.0 0.0 0.00 0.00 0.00 67 1007.4
20260505032318 68 0.0 0.0 0.00 0.00 0.00 66 1007.3
20260505031318 68 0.0 0.0 0.00 0.00 0.00 66 1007.4
20260505030318 69 0.0 0.0 0.00 0.00 0.00 66 1007.3
20260505025318 69 0.0 0.0 0.00 0.00 0.00 65 1007.4
20260505024318 69 0.0 0.0 0.00 0.00 0.00 65 1007.3
20260505023318 70 0.0 0.0 0.00 0.00 0.00 64 1007.2
20260505022318 70 0.0 0.0 0.00 0.00 0.00 63 1007.0
20260505021318 70 0.0 0.0 0.00 0.00 0.00 63 1006.8
20260505020318 70 0.0 0.0 0.00 0.00 0.00 62 1006.6
20260505015318 71 0.0 0.0 0.00 0.00 0.00 61 1006.5
20260505014318 71 180 0.9 2.6 0.00 0.00 0.00 60 1006.2
20260505013318 71 0.0 0.0 0.00 0.00 0.00 60 1006.0
20260505012318 72 0.0 0.0 0.00 0.00 0.00 59 1005.9
20260505011318 72 0.0 0.0 0.00 0.00 0.00 57 1005.9
20260505010318 73 0.0 0.0 0.00 0.00 0.00 57 1005.6
20260505005358 73 0.0 0.0 0.00 0.00 0.00 55 1005.6
20260505004318 74 180 0.9 3.5 0.00 0.00 0.00 54 1005.6
20260505003318 74 0.0 0.0 0.00 0.00 0.00 53 1005.5
20260505002318 75 0.0 0.0 0.00 0.00 0.00 51 1005.4
20260505001317 75 0.0 0.0 0.00 0.00 0.00 50 1005.4
20260505000318 76 0.0 0.0 0.00 0.00 0.00 49 1005.5
20260504235318 77 0.0 0.0 0.00 0.00 0.00 48 1005.6
20260504234318 77 0.0 0.0 0.00 0.00 0.00 47 1005.6
20260504233317 78 0.0 2.6 0.00 0.00 0.00 46 1005.4
20260504232317 78 0.0 2.6 0.00 0.00 0.00 46 1005.4
20260504231338 79 0.0 0.0 0.00 0.00 0.00 46 1005.5
20260504230318 79 180 0.9 6.1 0.00 0.00 0.00 45 1005.6
20260504225318 79 0.0 2.6 0.00 0.00 0.00 45 1005.5
20260504224317 80 0.0 3.5 0.00 0.00 0.00 46 1005.6
20260504223318 80 0.0 0.0 0.00 0.00 0.00 46 1005.6
20260504222338 80 270 1.7 5.2 0.00 0.00 0.00 44 1005.7
20260504221318 80 203 0.9 4.3 0.00 0.00 0.00 44 1005.7
20260504220318 80 203 0.9 6.1 0.00 0.00 0.00 46 1005.7
20260504215338 79 203 2.6 5.2 0.00 0.00 0.00 46 1005.9
20260504214317 80 203 2.6 7.0 0.00 0.00 0.00 46 1005.9
20260504213317 80 203 0.9 5.2 0.00 0.00 0.00 46 1006.1
20260504212318 80 0.0 0.9 0.00 0.00 0.00 47 1006.2
20260504211317 80 203 1.7 10.4 0.00 0.00 0.00 47 1006.2
20260504210338 81 248 2.6 9.6 0.00 0.00 0.00 44 1006.4
20260504205318 81 180 1.7 6.1 0.00 0.00 0.00 44 1006.6
20260504204317 81 0.0 0.0 0.00 0.00 0.00 45 1006.6
20260504203317 81 180 6.1 11.3 0.00 0.00 0.00 44 1006.7
20260504202317 81 180 0.9 5.2 0.00 0.00 0.00 46 1006.9
20260504201317 81 158 0.9 7.8 0.00 0.00 0.00 45 1007.0
20260504200339 82 0.0 0.9 0.00 0.00 0.00 45 1007.1
20260504195317 81 203 1.7 5.2 0.00 0.00 0.00 45 1007.2
20260504194317 82 270 0.9 6.1 0.00 0.00 0.00 45 1007.2
20260504193337 81 0.0 0.0 0.00 0.00 0.00 44 1007.3
20260504192317 80 0.0 2.6 0.00 0.00 0.00 47 1007.2
20260504191338 80 180 1.7 7.8 0.00 0.00 0.00 45 1007.3
20260504190317 80 248 0.9 2.6 0.00 0.00 0.00 48 1007.4
20260504185317 80 0.0 0.0 0.00 0.00 0.00 46 1007.4
20260504184337 79 203 1.7 7.0 0.00 0.00 0.00 45 1007.4
20260504183318 80 0.0 0.9 0.00 0.00 0.00 47 1007.4
20260504182357 80 293 0.9 3.5 0.00 0.00 0.00 46 1007.3
20260504181317 79 0.0 3.5 0.00 0.00 0.00 47 1007.4
20260504180337 78 180 2.6 14.8 0.00 0.00 0.00 46 1007.4
20260504175317 78 180 0.9 5.2 0.00 0.00 0.00 47 1007.4
20260504174317 78 180 2.6 7.0 0.00 0.00 0.00 47 1007.5
20260504173317 78 203 2.6 13.9 0.00 0.00 0.00 48 1007.7
20260504172317 77 203 1.7 7.8 0.00 0.00 0.00 48 1007.8
20260504171317 78 225 2.6 8.7 0.00 0.00 0.00 47 1008.0
20260504170317 77 180 0.9 8.7 0.00 0.00 0.00 49 1008.0
20260504160317 74 158 3.5 10.4 0.00 0.00 0.00 50 1008.2
20260504150317 71 0.0 1.7 0.00 0.00 0.00 53 1008.8